CW1020 Weather Reports


Display with metric or nautical units.
time (UTC)temp
F
wind
direction
speed
MPH
gust
MPH
rain 1hr
in
rain 24hr
in
rain mn
in
humidity
%
barometer
mb
20260905144503 50 0 0.0 0.0 0.00 0.00 0.00 88 1018.2
20260905144002 50 0 0.0 0.0 0.00 0.00 0.00 88 1018.1
20260905143502 50 0 0.0 0.0 0.00 0.00 0.00 88 1018.0
20260905143003 49 0 0.0 0.0 0.00 0.00 0.00 87 1017.8
20260905142502 49 56 0.0 1.0 0.00 0.00 0.00 87 1017.9
20260905142002 49 0 0.0 0.0 0.00 0.00 0.00 87 1017.9
20260905141503 49 55 0.0 1.0 0.00 0.00 0.00 87 1017.8
20260905141003 49 56 0.0 1.0 0.00 0.00 0.00 86 1017.7
20260905140502 49 0 0.0 0.0 0.00 0.00 0.00 86 1017.7
20260905140003 49 0 0.0 0.0 0.00 0.00 0.00 86 1017.7
20260905135502 49 0 0.0 0.0 0.00 0.00 0.00 86 1017.6
20260905135002 50 0 0.0 0.0 0.00 0.00 0.00 86 1017.6
20260905134503 50 0 0.0 0.0 0.00 0.00 0.00 86 1017.5
20260905133502 50 55 0.0 1.0 0.00 0.00 0.00 86 1017.5
20260905133003 50 55 0.0 1.0 0.00 0.00 0.00 85 1017.5
20260905132502 50 0 0.0 0.0 0.00 0.00 0.00 85 1017.4
20260905132002 50 0 0.0 0.0 0.00 0.00 0.00 85 1017.2
20260905131503 50 0 0.0 0.0 0.00 0.00 0.00 86 1017.2
20260905130502 50 0 0.0 0.0 0.00 0.00 0.00 86 1017.2
20260905125503 50 0 0.0 0.0 0.00 0.00 0.00 86 1017.2
20260905125003 50 0 0.0 0.0 0.00 0.00 0.00 86 1017.2
20260905124503 51 0 0.0 0.0 0.00 0.00 0.00 86 1017.2
20260905123503 51 0 0.0 0.0 0.00 0.00 0.00 86 1017.1
20260905123002 51 0 0.0 0.0 0.00 0.00 0.00 86 1017.2
20260905122503 51 0 0.0 0.0 0.00 0.00 0.00 85 1017.2
20260905122003 51 0 0.0 0.0 0.00 0.00 0.00 85 1017.2
20260905121502 51 0 0.0 0.0 0.00 0.00 0.00 84 1017.2
20260905121002 51 0 0.0 0.0 0.00 0.00 0.00 84 1017.3
20260905120503 51 0 0.0 0.0 0.00 0.00 0.00 84 1017.3
20260905120003 51 0 0.0 0.0 0.00 0.00 0.00 83 1017.3
20260905115502 51 0 0.0 0.0 0.00 0.00 0.00 83 1017.3
20260905115003 51 0 0.0 0.0 0.00 0.00 0.00 83 1017.4
20260905114502 51 0 0.0 0.0 0.00 0.00 0.00 83 1017.5
20260905114003 51 0 0.0 0.0 0.00 0.00 0.00 83 1017.3
20260905113502 52 0 0.0 0.0 0.00 0.00 0.00 83 1017.4
20260905113003 52 0 0.0 0.0 0.00 0.00 0.00 84 1017.4
20260905112003 52 0 0.0 0.0 0.00 0.00 0.00 84 1017.5
20260905111503 52 0 0.0 0.0 0.00 0.00 0.00 84 1017.4
20260905111002 52 58 0.0 1.0 0.00 0.00 0.00 84 1017.5
20260905104502 52 0 0.0 0.0 0.00 0.00 0.00 82 1017.6
20260905104003 52 0 0.0 0.0 0.00 0.00 0.00 82 1017.6
20260905103502 52 0 0.0 0.0 0.00 0.00 0.00 82 1017.6
20260905103003 52 57 0.0 1.0 0.00 0.00 0.00 82 1017.6
20260905102502 52 0 0.0 0.0 0.00 0.00 0.00 82 1017.5
20260905102002 52 57 0.0 1.0 0.00 0.00 0.00 82 1017.6
20260905101502 52 0 0.0 0.0 0.00 0.00 0.00 81 1017.5
20260905100503 52 56 0.0 1.0 0.00 0.00 0.00 82 1017.5
20260905100003 52 56 0.0 1.0 0.00 0.00 0.00 81 1017.6
20260905095503 52 49 0.0 1.0 0.00 0.00 0.00 81 1017.6
20260905095003 52 0 0.0 0.0 0.00 0.00 0.00 81 1017.6
20260905094502 52 0 0.0 0.0 0.00 0.00 0.00 80 1017.5
20260905093503 52 0 0.0 0.0 0.00 0.00 0.00 80 1017.5
20260905092003 53 0 0.0 0.0 0.00 0.00 0.00 79 1017.5
20260905091502 53 76 0.0 2.0 0.00 0.00 0.00 79 1017.4
20260905091003 53 0 0.0 0.0 0.00 0.00 0.00 79 1017.5
20260905090503 53 0 0.0 0.0 0.00 0.00 0.00 78 1017.5
20260905090003 53 0 0.0 0.0 0.00 0.00 0.00 78 1017.5
20260905085003 54 0 0.0 0.0 0.00 0.00 0.00 78 1017.7
20260905084503 54 0 0.0 0.0 0.00 0.00 0.00 78 1017.8
20260905084002 54 0 0.0 0.0 0.00 0.00 0.00 77 1017.8
20260905083503 54 0 0.0 0.0 0.00 0.00 0.00 78 1017.8
20260905083003 54 0 0.0 0.0 0.00 0.00 0.00 77 1017.9
20260905082503 54 0 0.0 0.0 0.00 0.00 0.00 76 1017.9
20260905082003 54 0 0.0 0.0 0.00 0.00 0.00 76 1017.9
20260905081503 54 0 0.0 0.0 0.00 0.00 0.00 75 1017.9
20260905081003 55 71 0.0 1.0 0.00 0.00 0.00 75 1017.9
20260905080503 55 0 0.0 0.0 0.00 0.00 0.00 75 1018.0
20260905080003 55 0 0.0 0.0 0.00 0.00 0.00 75 1017.9
20260905075003 55 0 0.0 0.0 0.00 0.00 0.00 76 1017.9
20260905074503 55 0 0.0 0.0 0.00 0.00 0.00 75 1017.8
20260905074002 56 0 0.0 0.0 0.00 0.00 0.00 75 1017.8
20260905073503 56 0 0.0 0.0 0.00 0.00 0.00 74 1017.8
20260905073003 56 71 0.0 1.0 0.00 0.00 0.00 74 1017.8
20260905072502 56 0 0.0 0.0 0.00 0.00 0.00 74 1017.8
20260905072003 56 72 0.0 1.0 0.00 0.00 0.00 73 1017.8
20260905071503 56 73 0.0 1.0 0.00 0.00 0.00 73 1017.8
20260905071002 56 0 0.0 0.0 0.00 0.00 0.00 72 1017.7
20260905065503 57 74 1.0 1.0 0.00 0.00 0.00 73 1017.7
20260905065003 57 71 1.0 2.0 0.00 0.00 0.00 73 1017.6
20260905064502 57 73 1.0 2.0 0.00 0.00 0.00 73 1017.7
20260905064003 57 73 1.0 2.0 0.00 0.00 0.00 72 1017.6
20260905063003 57 78 0.0 2.0 0.00 0.00 0.00 72 1017.5
20260905062502 57 0 1.0 0.0 0.00 0.00 0.00 72 1017.6
20260905061503 58 80 1.0 2.0 0.00 0.00 0.00 72 1017.7
20260905061003 58 78 0.0 2.0 0.00 0.00 0.00 71 1017.6
20260905060502 58 74 0.0 1.0 0.00 0.00 0.00 71 1017.6
20260905060003 58 74 1.0 1.0 0.00 0.00 0.00 71 1017.6
20260905055503 58 75 0.0 2.0 0.00 0.00 0.00 70 1017.5
20260905055003 59 77 0.0 1.0 0.00 0.00 0.00 70 1017.5
20260905054503 59 0 0.0 0.0 0.00 0.00 0.00 69 1017.5
20260905054003 59 0 0.0 0.0 0.00 0.00 0.00 69 1017.5
20260905053502 59 0 0.0 0.0 0.00 0.00 0.00 69 1017.5
20260905052503 60 0 0.0 0.0 0.00 0.00 0.00 68 1017.6
20260905052003 60 0 0.0 0.0 0.00 0.00 0.00 68 1017.7
20260905051503 60 77 0.0 1.0 0.00 0.00 0.00 68 1017.7
20260905051003 60 0 0.0 0.0 0.00 0.00 0.00 67 1017.7
20260905050503 61 0 0.0 0.0 0.00 0.00 0.00 67 1017.7
20260905050003 61 77 0.0 1.0 0.00 0.00 0.00 67 1017.7
20260905045504 61 80 0.0 1.0 0.00 0.00 0.00 67 1017.7
20260905045003 61 0 0.0 0.0 0.00 0.00 0.00 66 1017.6
20260905044504 62 0 0.0 0.0 0.00 0.00 0.00 66 1017.6
20260905044003 62 0 0.0 0.0 0.00 0.00 0.00 66 1017.6
20260905043503 62 0 0.0 0.0 0.00 0.00 0.00 66 1017.6
20260905043002 62 81 0.0 1.0 0.00 0.00 0.00 66 1017.6
20260905042503 62 80 0.0 1.0 0.00 0.00 0.00 66 1017.6
20260905042003 62 80 0.0 1.0 0.00 0.00 0.00 66 1017.5
20260905041003 63 81 0.0 1.0 0.00 0.00 0.00 65 1017.4
20260905040503 63 157 0.0 1.0 0.00 0.00 0.00 65 1017.4
20260905035503 63 0 0.0 0.0 0.00 0.00 0.00 64 1017.3
20260905035003 63 0 0.0 0.0 0.00 0.00 0.00 64 1017.2
20260905034503 64 0 0.0 0.0 0.00 0.00 0.00 64 1017.2
20260905034003 64 0 0.0 0.0 0.00 0.00 0.00 64 1017.1
20260905033503 64 0 0.0 0.0 0.00 0.00 0.00 64 1017.0
20260905032503 64 0 0.0 0.0 0.00 0.00 0.00 63 1016.8
20260905032003 64 169 0.0 1.0 0.00 0.00 0.00 63 1016.8
20260905031503 64 170 0.0 2.0 0.00 0.00 0.00 62 1016.6
20260905031003 65 0 0.0 0.0 0.00 0.00 0.00 62 1016.8
20260905030003 65 0 0.0 0.0 0.00 0.00 0.00 61 1016.7
20260905025503 65 154 0.0 1.0 0.00 0.00 0.00 60 1016.6
20260905025003 65 150 0.0 2.0 0.00 0.00 0.00 60 1016.6
20260905024503 65 0 0.0 0.0 0.00 0.00 0.00 59 1016.6
20260905024003 65 194 0.0 1.0 0.00 0.00 0.00 59 1016.5
20260905023503 66 0 0.0 0.0 0.00 0.00 0.00 59 1016.4
20260905023003 66 195 1.0 2.0 0.00 0.00 0.00 59 1016.4
20260905022503 66 197 2.0 2.0 0.00 0.00 0.00 59 1016.5
20260905022003 66 233 2.0 3.0 0.00 0.00 0.00 58 1016.5
20260905021502 66 198 2.0 5.0 0.00 0.00 0.00 58 1016.5
20260905021003 66 245 4.0 4.0 0.00 0.00 0.00 58 1016.5
20260905020503 66 237 5.0 10.0 0.00 0.00 0.00 58 1016.4
20260905015503 67 235 7.0 10.0 0.00 0.00 0.00 57 1016.4
20260905015003 67 238 7.0 11.0 0.00 0.00 0.00 56 1016.3
20260905014503 67 237 6.0 13.0 0.00 0.00 0.00 56 1016.3
20260905014004 68 240 6.0 11.0 0.00 0.00 0.00 55 1016.3
20260905013503 68 234 7.0 10.0 0.00 0.00 0.00 55 1016.3
20260905013003 68 227 8.0 11.0 0.00 0.00 0.00 55 1016.3
20260905012503 69 234 9.0 12.0 0.00 0.00 0.00 55 1016.3
20260905012003 69 235 9.0 12.0 0.00 0.00 0.00 54 1016.3
20260905010504 69 239 8.0 17.0 0.00 0.00 0.00 54 1016.3
20260905010004 69 223 8.0 13.0 0.00 0.00 0.00 52 1016.3
20260905005504 70 216 8.0 13.0 0.00 0.00 0.00 51 1016.3
20260905005003 70 216 9.0 11.0 0.00 0.00 0.00 52 1016.2
20260905004503 70 226 10.0 12.0 0.00 0.00 0.00 52 1016.2
20260905004003 70 232 10.0 15.0 0.00 0.00 0.00 50 1016.2
20260905003504 70 235 10.0 17.0 0.00 0.00 0.00 50 1016.2
20260905003003 70 231 12.0 16.0 0.00 0.00 0.00 50 1016.1
20260905002503 70 232 12.0 17.0 0.00 0.00 0.00 50 1016.0
20260905002003 70 233 11.0 21.0 0.00 0.00 0.00 49 1016.0
20260905001504 70 238 11.0 14.0 0.00 0.00 0.00 48 1016.1
20260905001003 71 233 10.0 15.0 0.00 0.00 0.00 47 1016.1
20260905000503 71 240 8.0 17.0 0.00 0.00 0.00 46 1016.1
20260905000003 71 211 8.0 12.0 0.00 0.00 0.00 46 1016.2
20260904235503 71 218 9.0 14.0 0.00 0.00 0.00 47 1016.0
20260904234504 71 233 11.0 16.0 0.00 0.00 0.00 50 1016.0
20260904233503 71 230 11.0 19.0 0.00 0.00 0.00 48 1016.0
20260904233004 71 233 11.0 17.0 0.00 0.00 0.00 49 1016.0
20260904232503 71 235 11.0 19.0 0.00 0.00 0.00 48 1016.0
20260904232003 71 234 10.0 17.0 0.00 0.00 0.00 47 1016.0
20260904230003 71 233 12.0 17.0 0.00 0.00 0.00 49 1016.0
20260904225504 70 236 12.0 19.0 0.00 0.00 0.00 50 1016.1
20260904225003 71 232 13.0 21.0 0.00 0.00 0.00 50 1016.0
20260904224503 70 232 13.0 23.0 0.00 0.00 0.00 51 1016.0
20260904224003 71 236 12.0 20.0 0.00 0.00 0.00 50 1015.9
20260904223003 70 238 12.0 17.0 0.00 0.00 0.00 51 1015.9
20260904222503 70 236 13.0 19.0 0.00 0.00 0.00 50 1015.8
20260904222003 70 236 12.0 17.0 0.00 0.00 0.00 50 1015.9
20260904221504 71 235 12.0 23.0 0.00 0.00 0.00 51 1015.9
20260904221003 70 229 13.0 16.0 0.00 0.00 0.00 51 1015.9
20260904220503 70 234 12.0 17.0 0.00 0.00 0.00 51 1016.0
20260904215503 70 228 12.0 14.0 0.00 0.00 0.00 52 1016.1
20260904214503 70 237 12.0 17.0 0.00 0.00 0.00 52 1016.0
20260904214004 70 239 12.0 19.0 0.00 0.00 0.00 51 1016.0
20260904213003 70 239 12.0 20.0 0.00 0.00 0.00 52 1016.0
20260904212504 71 235 11.0 17.0 0.00 0.00 0.00 51 1016.0
20260904212003 71 234 11.0 19.0 0.00 0.00 0.00 51 1016.1
20260904211504 70 234 12.0 19.0 0.00 0.00 0.00 52 1016.1
20260904211003 70 234 11.0 17.0 0.00 0.00 0.00 52 1016.1
20260904210502 70 232 11.0 20.0 0.00 0.00 0.00 52 1016.2
20260904210003 70 232 11.0 19.0 0.00 0.00 0.00 53 1016.3
20260904205503 70 230 12.0 19.0 0.00 0.00 0.00 52 1016.3
20260904205002 70 232 11.0 18.0 0.00 0.00 0.00 52 1016.2
20260904204502 70 235 11.0 17.0 0.00 0.00 0.00 52 1016.4
20260904204002 70 230 12.0 14.0 0.00 0.00 0.00 53 1016.3
20260904203502 70 238 13.0 19.0 0.00 0.00 0.00 53 1016.4
20260904203002 69 243 12.0 19.0 0.00 0.00 0.00 53 1016.2
20260904202503 70 234 12.0 19.0 0.00 0.00 0.00 53 1016.2
20260904202002 69 234 12.0 17.0 0.00 0.00 0.00 53 1016.2
20260904201502 69 238 11.0 20.0 0.00 0.00 0.00 53 1016.3
20260904201003 69 233 10.0 15.0 0.00 0.00 0.00 53 1016.3
20260904200503 69 235 10.0 14.0 0.00 0.00 0.00 54 1016.4
20260904200002 68 239 11.0 16.0 0.00 0.00 0.00 53 1016.3
20260904195502 68 240 12.0 15.0 0.00 0.00 0.00 54 1016.3
20260904195003 68 238 13.0 17.0 0.00 0.00 0.00 54 1016.4
20260904194502 68 236 12.0 22.0 0.00 0.00 0.00 54 1016.3
20260904194002 68 236 12.0 18.0 0.00 0.00 0.00 54 1016.3
20260904193502 68 233 10.0 19.0 0.00 0.00 0.00 53 1016.4
20260904193003 68 236 9.0 16.0 0.00 0.00 0.00 52 1016.4
20260904192502 68 239 9.0 16.0 0.00 0.00 0.00 53 1016.6
20260904191503 67 238 11.0 18.0 0.00 0.00 0.00 54 1016.6
20260904191002 67 241 11.0 16.0 0.00 0.00 0.00 54 1016.7
20260904190502 67 235 10.0 16.0 0.00 0.00 0.00 55 1016.7
20260904190003 66 236 9.0 17.0 0.00 0.00 0.00 55 1016.8
20260904185002 66 240 10.0 16.0 0.00 0.00 0.00 57 1016.8
20260904184503 66 236 9.0 16.0 0.00 0.00 0.00 57 1016.9
20260904184002 66 239 10.0 15.0 0.00 0.00 0.00 56 1016.9
20260904183502 66 236 12.0 18.0 0.00 0.00 0.00 57 1016.8
20260904183003 66 235 12.0 18.0 0.00 0.00 0.00 56 1016.9
20260904182503 65 236 10.0 19.0 0.00 0.00 0.00 56 1016.8
20260904182003 65 238 8.0 18.0 0.00 0.00 0.00 58 1016.9
20260904181503 65 235 9.0 17.0 0.00 0.00 0.00 58 1017.1
20260904181002 64 245 8.0 15.0 0.00 0.00 0.00 59 1017.2
20260904180502 64 238 7.0 17.0 0.00 0.00 0.00 59 1017.2
20260904180002 64 244 8.0 13.0 0.00 0.00 0.00 60 1017.2
20260904175502 64 241 9.0 16.0 0.00 0.00 0.00 60 1017.3
20260904175002 64 233 8.0 14.0 0.00 0.00 0.00 58 1017.2
20260904174503 63 245 8.0 11.0 0.00 0.00 0.00 58 1017.2
20260904174002 63 233 9.0 13.0 0.00 0.00 0.00 59 1017.1
20260904173502 63 238 9.0 15.0 0.00 0.00 0.00 58 1017.0
20260904173002 63 235 7.0 15.0 0.00 0.00 0.00 58 1017.1
20260904172502 63 233 7.0 12.0 0.00 0.00 0.00 58 1017.0
20260904172003 63 240 7.0 10.0 0.00 0.00 0.00 58 1017.0
20260904171502 62 239 5.0 12.0 0.00 0.00 0.00 59 1017.1
20260904171002 62 238 4.0 10.0 0.00 0.00 0.00 60 1017.1
20260904170502 62 242 5.0 11.0 0.00 0.00 0.00 60 1017.0
20260904170002 61 240 6.0 14.0 0.00 0.00 0.00 60 1017.0
20260904165502 61 236 7.0 12.0 0.00 0.00 0.00 60 1017.0
20260904165003 61 242 8.0 11.0 0.00 0.00 0.00 60 1016.9
20260904164502 61 238 8.0 12.0 0.00 0.00 0.00 60 1016.7
20260904164002 61 241 7.0 14.0 0.00 0.00 0.00 60 1016.5
20260904163502 61 233 6.0 13.0 0.00 0.00 0.00 60 1016.5
20260904163002 61 237 6.0 12.0 0.00 0.00 0.00 60 1016.5
20260904162503 61 235 6.0 11.0 0.00 0.00 0.00 60 1016.4
20260904162003 61 240 5.0 12.0 0.00 0.00 0.00 60 1016.4
20260904161502 60 235 4.0 12.0 0.00 0.00 0.00 61 1016.5
20260904160502 60 242 5.0 8.0 0.00 0.00 0.00 62 1016.5
20260904160002 59 236 5.0 8.0 0.00 0.00 0.00 63 1016.4
20260904155503 59 240 5.0 10.0 0.00 0.00 0.00 63 1016.6
20260904155002 59 236 5.0 8.0 0.00 0.00 0.00 63 1016.5
20260904154003 58 240 3.0 11.0 0.00 0.00 0.00 64 1016.5
20260904153502 58 241 3.0 8.0 0.00 0.00 0.00 65 1016.6
20260904153002 58 241 3.0 5.0 0.00 0.00 0.00 66 1016.6
20260904152503 57 241 3.0 7.0 0.00 0.00 0.00 66 1016.5
20260904152003 57 241 3.0 7.0 0.00 0.00 0.00 67 1016.5
20260904151502 57 239 3.0 8.0 0.00 0.00 0.00 67 1016.6
20260904151002 57 235 3.0 5.0 0.00 0.00 0.00 67 1016.5
20260904150503 56 242 2.0 8.0 0.00 0.00 0.00 68 1016.4
20260904150002 56 237 2.0 4.0 0.00 0.00 0.00 69 1016.3
20260904145503 56 238 2.0 8.0 0.00 0.00 0.00 69 1016.3